Other Public Products
Issued by NWS Grand Forks, ND

Home | Current Version | Previous Version | Graphics & Text | Print | Product List | Glossary On
Versions: 1 2 3 4 5 6 7 8 9 10 11 12 13 14 15 16 17 18 19 20 21 22 23 24 25 26 27 28 29 30 31 32 33 34 35 36 37 38 39 40 41 42 43 44 45 46 47 48 49 50
000
FPUS83 KFGF 161931
OPUFGF
PRAIRIE TO PINES WEATHER ROUNDUP
NATIONAL WEATHER SERVICE EASTERN NORTH DAKOTA/GRAND FORKS ND
200 PM CDT MON OCT 16 2017

 **SATELLITE DATA USED TO AUGMENT SKY COVER AT AUTOMATED STATIONS**
 *****  WEATHER ACROSS EASTERN NORTH DAKOTA  *****

CITY           SKY/WX    TMP DP  RH WIND       PRES   REMARKS
GRAND FORKS    FAIR      70  36  28 SW17G25   29.84F
GRAND FORKS AF   N/A    N/A N/A N/A W13       29.84F
GRAND CITY NWS NOT AVBL
BUXTON           N/A    N/A N/A N/A CALM        N/A
DEVILS LAKE    FAIR      64  37  36 W20       29.86F
FARGO          FAIR      68  38  33 SW24G32   29.91F
WAHPETON ARPT  NOT AVBL
$$

 *****  WEATHER ACROSS CENTRAL AND WESTERN NORTH DAKOTA  *****

CITY           SKY/WX    TMP DP  RH WIND       PRES   REMARKS
JAMESTOWN      FAIR      68  35  29 W16       29.91F
BISMARCK       FAIR      72  34  24 W22G28    29.95F
MINOT          FAIR      67  34  29 W20G28    29.87F
MINOT AFB      FAIR      66  34  30 NW17      29.85F
GARRISON         N/A     66  33  29 W23G36    29.91F
WILLISTON      FAIR      66  35  31 W21G29    29.93F
DICKINSON      FAIR      67  31  26 W14G25    29.98F
HETTINGER      FAIR      69  31  24 NW17      30.04F
$$

 *****  OTHER OBSERVATIONS NORTHEAST NORTH DAKOTA  *****

CITY           SKY/WX    TMP DP  RH WIND       PRES   REMARKS
WALHALLA       FAIR     N/A N/A N/A W17G24    29.79F
LANGDON        FAIR      64  36  34 W18G26    29.83F
CAVALIER       FAIR      66  39  37 SW15G23   29.78F
GRAFTON        FAIR      64  37  36 W16       29.83F
CANDO          FAIR      66  36  32 W20       29.86F
FORT TOTTEN      N/A     65  35  32 W12       29.95S
ROLLA          FAIR      64  32  29 W20       29.84S
RUGBY          FAIR      64  36  34 W16G24    29.85F
 ***** THE ABOVE OBSERVATIONS ARE NON NWS ARE NOT QUALITY
        CONTROLLED AND MAY MIS-REPORT RAIN FOR SNOW...
$$

 *****  OTHER OBSERVATIONS SOUTHEAST NORTH DAKOTA *****

CITY           SKY/WX    TMP DP  RH WIND       PRES   REMARKS
COOPERSTOWN    FAIR      68  36  30 W16       29.88F
VALLEY CITY    FAIR      70  37  30 SW23G30   29.90F
OAKES          NOT AVBL
GWINNER        CLEAR     68  36  30 SW16G23   29.94F
SHEYENNE NWR     N/A     67  36  31 SW17      29.95
BUFFALO          N/A     69  32  26 SW18        N/A
WYNDMERE       NOT AVBL
 ***** THE ABOVE OBSERVATIONS ARE NON NWS ARE NOT QUALITY
       CONTROLLED AND MAY MIS-REPORT RAIN FOR SNOW...
$$

  *****  WEATHER ACROSS NORTHERN MINNESOTA  *****

CITY           SKY/WX    TMP DP  RH WIND       PRES   REMARKS
FLAG ISLAND    FAIR      59  36  41 S18G25    29.75F
WARROAD        FAIR      63  37  39 SW22G30   29.79F
ROSEAU           N/A     63  37  39 SW24G31   29.79F
HALLOCK        FAIR      64  34  32 SW17G25   29.79F
THF RVR FALLS  FAIR      62  35  36 SW22G30   29.86
HALSTAD          N/A     68  36  30 SW28        N/A
FOSSTON        FAIR      64  34  32 S23G33    29.89F
BAUDETTE       FAIR      62  34  35 S22G29    29.83F
WASKISH        FAIR      63  34  34 SW12G22   29.87F
CROOKSTON      FAIR      68  36  30 SW25      29.85F
$$
  *****  WEATHER ACROSS CENTRAL AND WEST MINNESOTA  *****

CITY           SKY/WX    TMP DP  RH WIND       PRES   REMARKS
BEMIDJI        FAIR      62  34  35 SW16G25   29.92F
PARK RAPIDS    FAIR      63  37  38 SW14G24   29.98F
WADENA         FAIR      63  37  39 SW17G24   29.98F
DETROIT LAKES  FAIR      63  37  39 SW17G25   29.95F
MOORHEAD       FAIR      66  36  32 SW18G26   29.92F
FERGUS FALLS   FAIR      66  39  37 SW17      29.97F
ELBOW LAKE     FAIR      65  38  37 W15G21    29.99F
MORRIS MN      FAIR      66  37  34 SW16G22   30.00F
STAPLES        FAIR      63  34  34 S12       30.00F
WHEATON        FAIR      70  30  23 SW15      29.99F
$$
  *****  WEATHER ELSEWHERE ACROSS MINNESOTA  *****

CITY           SKY/WX    TMP DP  RH WIND       PRES   REMARKS
DULUTH         FAIR      57  37  47 SW14G24   30.04F
INTRNTL FALLS  FAIR      61  33  35 SW14G24   29.90F
ELY            FAIR      55  30  38 SW12G17   29.98F
CLOQUET        FAIR      59  30  33 SW13      30.03F
BRAINERD       FAIR      60  33  36 S14G25    30.04F
HIBBING        FAIR      57  33  40 SW8G17    30.00F
ALEXANDRIA     FAIR      63  37  38 S17       30.05F
SAINT CLOUD    FAIR      61  37  41 S15       30.08F
MINNEAPOLIS    FAIR      62  35  36 SW10G20   30.13F
$$

  *****  WEATHER ACROSS SOUTH DAKOTA  *****

CITY           SKY/WX    TMP DP  RH WIND       PRES   REMARKS
SIOUX FALLS    FAIR      69  40  34 S21       30.08F
BROOKINGS      FAIR      66  37  34 S15G24    30.05F
WATERTOWN      FAIR      65  38  36 S17       30.02F
HURON          FAIR      65  40  39 SW12      30.04F
SISSETON         N/A     69  36  29 SW16G25   29.97F
ABERDEEN       FAIR      64  40  41 S13       30.00F
MITCHELL       FAIR      69  38  32 SW12      30.05F
PIERRE         FAIR      63  38  39 W8        30.03F
MOBRIDGE       FAIR      71  39  31 S9        29.96F
RAPID CITY     FAIR      74  26  16 N14G20    30.09F
$$

  *****  SOME WEATHER IN NEARBY STATES *****

CITY           SKY/WX    TMP DP  RH WIND       PRES   REMARKS
GLASGOW MT     FAIR      65  31  28 NW20G25   29.98F
GREAT FALLS MT FAIR      64  19  17 SW28G36   30.11F
CHEYENNE WY    FAIR      71   4   7 W24G35    30.27F
SCOTTSBLUFF NE FAIR      74  18  12 W12       30.16F
OMAHA NE       FAIR      71  34  25 SW13G25   30.21F
DES MOINES IA  FAIR      67  34  29 SW8       30.25F
DAVENPORT IA   FAIR      63  35  35 W9G17     30.30F
CHICAGO IL     FAIR      61  40  45 SW9       30.26F
EAU CLAIRE WI  FAIR      59  33  37 SW16      30.15F
LA CROSSE WI   FAIR      64  37  36 SW12      30.19F
$$

  *****  SOME NATIONAL WEATHER *****

CITY           SKY/WX    TMP DP  RH WIND       PRES   REMARKS
LA GUARDIA NY  PTSUNNY   58  42  55 NW17G24   30.01S
RALEIGH NC     PTSUNNY   61  57  87 NE7       30.10R
ATLANTA GA     FAIR      66  47  50 NW21G26   30.09F
NEW ORLEANS LA PTSUNNY   72  53  51 N15G21    30.09F
OKLAHOMA CITY  FAIR      66  36  32 VRB6      30.38F
ALBUQUERQUE NM FAIR      64  26  23 SW6       30.46F
SALT LAKE CITY PTSUNNY   59  24  26 NW5       30.41F
LOS ANGELES CA FAIR      86  36  16 W8        30.05F
BOISE ID       FAIR      54  26  34 VRB3      30.37F
SEATTLE WA     FAIR      57  47  69 S15G21    30.21F
$$

*** WEATHER ACROSS MANITOBA...SASKATCHEWAN AND ONTARIO ***
                ***ONTARIO***

CITY           SKY/WX    TMP DP  RH WIND       PRES   REMARKS
GERALDTON      CLOUDY    46  36  66 W10       29.94F
THUNDER BAY    CLOUDY    54  34  47 SW10      30.01F
SIOUX LOOKOUT  PTSUNNY   52  36  54 SW15G22   29.84F
TORONTO        PTSUNNY   50  32  50 N8        30.20F
BIG TROUT LK   LGT RAIN  43  34  70 SW12G17   29.69F
PICKLE LAKE    CLOUDY    45  32  61 S13       29.80F
DRYDEN         PTSUNNY   54  34  47 SW18G24   29.83F
KENORA         MOSUNNY   55  36  47 S20G25    29.77F
$$
                *** MANITOBA***

CITY           SKY/WX    TMP DP  RH WIND       PRES   REMARKS
BRANDON        PTSUNNY   61  36  39 W16G23    29.80F
DAUPHIN        SUNNY     64  34  32 W25G32    29.72S
ISLAND LAKE    PTSUNNY   46  37  71 S13G22    29.50F
PILOT MOUND      N/A     61  34  36 W13G22      N/A
THE PAS        MOSUNNY   57  34  41 W28G37    29.56S
THOMPSON       PTSUNNY   43  41  93 SW8       29.37F
WINNIPEG       PTSUNNY   61  39  44 W15G24    29.75F
LYNN LAKE      CLOUDY    41  37  87 NW23G35   29.39R
CHURCHILL      LGT SNOW  32  32 100 E6        29.57F
GILLAM         LGT SNOW  32  32 100 SE8       29.42F WCI  25
$$
                ***SASKATCHEWAN***

CITY           SKY/WX    TMP DP  RH WIND       PRES   REMARKS
ESTEVAN        PTSUNNY   61  34  36 W15G23    29.90R
KINDERSLEY     MOSUNNY   59  30  33 SW2       29.88F
LLOYDMINSTER   CLOUDY    54  32  43 W9        29.81F
PRINCE ALBERT  PTSUNNY   59  30  33 NW15G25   29.78S
REGINA         MOSUNNY   61  32  33 W8        29.88F
YORKTON        SUNNY     64  32  29 W21G26    29.78F


USA.gov is the U.S. government's official web portal to all federal, state and local government web resources and services.